Simultaneous Nadir Overpasses (SNOs) Predictions

Prediction of SNOs between LANDSAT-8 and METOP-B Satellite Orbit:

Table of predicted SNOs for the next 14.0 days since TLE Epoch: 5/12/2018
Index Date (LANDSAT-8) Time (LANDSAT-8) Lat,Lon (LANDSAT-8) SZA (LANDSAT-8 ) Date (METOP-B) Time (METOP-B) Lat,Lon (METOP-B) SZA (METOP-B ) Distance(km) Time Diff (sec)
1 05/14/2018 04:43:34 -81.16, -31.22 115.25 05/14/2018 04:42:57 -81.15, -31.30 115.28 1.72 37
2 05/14/2018 05:33:00 81.16, 136.52 64.76 05/14/2018 05:33:36 81.17, 136.49 64.77 0.63 36
3 05/17/2018 00:17:47 -81.16, 35.31 115.90 05/17/2018 00:17:17 -81.16, 35.39 115.90 1.54 30
4 05/17/2018 01:07:13 81.17,-156.99 64.11 05/17/2018 01:07:56 81.17,-156.84 64.15 2.52 43
5 05/19/2018 19:52:01 -81.14, 101.43 116.56 05/19/2018 19:51:39 -81.14, 101.32 116.58 1.88 22
6 05/19/2018 20:41:26 81.17, -90.53 63.50 05/19/2018 20:42:17 81.17, -90.57 63.52 0.78 51
7 05/22/2018 15:26:12 -81.17, 168.24 117.08 05/22/2018 15:25:57 -81.17, 168.35 117.07 1.88 15
8 05/22/2018 16:15:38 81.17, -24.10 62.92 05/22/2018 16:16:36 81.18, -23.93 62.97 3.05 58
9 05/25/2018 11:00:25 -81.17,-125.34 117.61 05/25/2018 11:00:18 -81.16,-125.38 117.62 1.00 7




NCC Satellite Simultaneous Nadir Overpasses (SNOs) Prediction Service
